World > North America > United States > Mississippi

Hourly Macel, MS Regional Weather

Feedback E-mail the Weather

Quick WX

Macel, MS Weather Maps

°F °C°F °C
Macel Weather Map
UTC Time: 7/4/2022, 09:34
Your Time:

Macel, MS Regional Weather

Expires:202207041000;;658063
ASUS44 KJAN 040910
RWRMS 

MISSISSIPPI HOURLY WEATHER ROUNDUP
NATIONAL WEATHER SERVICE JACKSON MS
400 AM CDT MON JUL 04 2022

NOTE: "FAIR: INDICATES FEW OR NO CLOUDS BELOW 12,000 FEET WITH NO
SIGNIFICANT WEATHER AND/OR OBSTRUCTIONS TO VISIBILITY.


MSZ001>002-007>008-010>013-018>021-025>028-034>036-041000-
NORTHWEST MISSISSIPPI
  
CITY           SKY/WX    TMP DP  RH WIND       PRES   REMARKS
BATESVILLE     MOCLDY    73  73 100 CALM      30.04R FOG              
CLARKSDALE     FOG       73  73 100 CALM      30.04S VSB 1/2          
CLEVELAND      MOCLDY    77  77 100 SE3       30.04S                  
GREENWOOD      CLOUDY    79  74  84 S5        30.04S                  
GREENVILLE     NOT AVBL                                               
OLIVE BRANCH     N/A     73  73 100 CALM      30.04R                  
OXFORD         CLEAR     75  75 100 S3        30.07S                  
TUNICA         PTCLDY    74  73  99 S5        30.04S                  
WINONA         FAIR      74  73  99 CALM      30.05S FOG              
$$


SKY/WX - Weather  TMP - Temperature  DP - Dew Point  RH - Humidity
WIND - Wind Direction/Speed PRES - Barometric Pressure VSB - Visibility
WCI - Wind Chill Index E13G22 Wind - East Wind 13 mph/Gusts of 22 mph

Trending Headlines

Macel Radar Loop



Macel Quick Facts


National Two Day Weather Forecast


E-mail the Macel Weather Forecast

Voice your opinion or tell us about page issues...